Trieste, Italy

4:32 PM CEST on April 19, 2018 (GMT +0200)
Trieste

Weather History for LIVT - October, 2012

Change the Weather History Date:

Tuesday, October 23, 2012

  Actual Average Record
Temperature  
Mean Temperature 66 °F -  
Max Temperature 72 °F 57 °F 73 °F (2008)
Min Temperature 59 °F 48 °F 44 °F (2003)
Growing Degree Days 16 (Base 50)    
Moisture  
Dew Point 42 °F    
Average Humidity 43    
Maximum Humidity 52    
Minimum Humidity 24    
Precipitation  
Precipitation 0.00 in 0.14 in - ()
Sea Level Pressure  
Sea Level Pressure 30.06 in    
Wind  
Wind Speed 16 mph ()    
Max Wind Speed 23 mph    
Max Gust Speed 46 mph    
Visibility 12.0 miles    
Events      
Averages and records for this station are not official NWS values.
T = Trace of Precipitation, MM = Missing Value Source: Averaged Metar Reports

Daily Weather History Graph

Daily Weather History Graph

Search for Another Location

Airport or City:

Astronomy

Oct. 23, 2012 Rise Set
Actual Time 7:32 AM CEST 6:05 PM CEST
Civil Twilight 7:02 AM CEST 6:35 PM CEST
Nautical Twilight 6:27 AM CEST 7:10 PM CEST
Astronomical Twilight 5:53 AM CEST 7:44 PM CEST
Moon 2:55 PM CEST (10/23) 12:47 AM CEST (10/23)
Length of Visible Light 11h 33m
Length of Day
10h 32m
Waxing Gibbous, 64% of the Moon is Illuminated
Oct 23
Waxing Gibbous
Oct 29
Full
Nov 7
Last Quarter
Nov 13
New
Nov 20
First Quarter

Hourly Weather History & Observations

Time (CEST) Temp. Dew Point Humidity Pressure Visibility Wind Dir Wind Speed Gust Speed Precip Events Conditions
12:55 AM 64.4 °F 39.2 °F 40% 30.06 in - ENE 23.0 mph 39.1 mph N/A   Clear
1:55 AM 62.6 °F 41.0 °F 45% 30.06 in - ENE 17.3 mph 34.5 mph N/A   Clear
2:00 AM 63 °F 40 °F 32% 30.06 in 12 mi ENE 17.3 mph - -  
2:55 AM 62.6 °F 41.0 °F 45% 30.06 in - ENE 9.2 mph 26.5 mph N/A   Clear
4:55 AM 60.8 °F 39.2 °F 45% 30.04 in - ENE 16.1 mph 33.4 mph N/A   Clear
5:55 AM 60.8 °F 39.2 °F 45% 30.04 in - ENE 19.6 mph 41.4 mph N/A   Clear
6:55 AM 60.8 °F 39.2 °F 45% 30.04 in - ENE 19.6 mph 39.1 mph N/A   Clear
7:55 AM 60.8 °F 39.2 °F 45% 30.06 in - ENE 17.3 mph 44.9 mph N/A   Clear
8:00 AM 61 °F 40 °F 34% 30.08 in 12 mi ENE 17.3 mph - -  
8:55 AM 60.8 °F 39.2 °F 45% 30.06 in - East 15.0 mph 33.4 mph N/A   Clear
9:55 AM 64.4 °F 41.0 °F 42% 30.06 in - ENE 20.7 mph 46.0 mph N/A   Clear
11:55 AM 68.0 °F 42.8 °F 40% 30.09 in - ENE 16.1 mph 33.4 mph N/A   Clear
2:00 PM 72 °F 43 °F 24% 30.09 in 12 mi ENE 13.8 mph - -  
3:55 PM 71.6 °F 44.6 °F 38% 30.06 in - ENE 19.6 mph 36.8 mph N/A   Clear
5:55 PM 66.2 °F 44.6 °F 46% 30.06 in - ENE 19.6 mph 40.3 mph N/A   Clear
6:55 PM 64.4 °F 44.6 °F 49% 30.06 in - ENE 18.4 mph 44.9 mph N/A   Clear
7:55 PM 64.4 °F 44.6 °F 49% 30.06 in - ENE 19.6 mph 40.3 mph N/A   Clear
8:00 PM 64 °F 45 °F 39% 30.09 in 12 mi ENE 19.6 mph - -  
8:55 PM 62.6 °F 44.6 °F 52% 30.06 in - ENE 19.6 mph 42.6 mph N/A   Clear
9:55 PM 62.6 °F 42.8 °F 48% 30.06 in - ENE 18.4 mph 40.3 mph N/A   Clear
10:55 PM 62.6 °F 42.8 °F 48% 30.06 in - ENE 18.4 mph 38.0 mph N/A   Clear
11:55 PM 62.6 °F 42.8 °F 48% 30.06 in - ENE 15.0 mph 33.4 mph N/A   Clear